weather.gov     
National Weather Service

Terminal Aerodrome Forecast
NWS Homepage
This page is being discontinued on March 12, 2014.
The same data is available at this site. Please update your bookmarks.
Thank you, and we apologize for the inconvenience.
Please send an email to SR-SRH.Webmaster@noaa.gov with any concerns.


Current Version
Previous Version:    01  02  03  04  05  06  07  08  09  10  11  12  13  14  15  16  17  18  19  20  21  22  23  24  25  26  27  28  29  
[Printable]
759
FTUS44 KMEG 242300
TAFMKL
TAF
KMKL 242327Z 2500/2524 19013G23KT P6SM VCTS BKN040CB OVC150
      TEMPO 2501/2503 4SM TSRA BKN029CB
     FM250400 25013G20KT P6SM SCT020 BKN050
      TEMPO 2506/2510 BKN020
     FM251300 30010KT P6SM SCT035
     FM251500 32012KT P6SM SKC=


U.S. Dept. of Commerce
NOAA National Weather Service
1325 East West Highway
Silver Spring, MD 20910
E-mail: w-nws.webmaster@noaa.gov
Page last modified: May 16, 2007
NATIONAL WEATHER SERVICE: for Safety, for Work, for Fun - FOR LIFE